Location: Czekan�w
(50.3488°N, 18.7344°E)
Time: 18:00:12
(UTC+00:00)

STARLINK-1088 - Pass Details

Date: 17 February 2020
Orbit: 379 x 380 km, 53.0° (Epoch: 29 March)

Event Time Altitude Azimuth Distance (km) Brightness Sun altitude
Exits shadow 03:53:45 - 175° (S) 1,556 5.9 -19.8°
Reaches altitude 10° 03:54:24 10° 166° (SSE) 1,400 5.8 -19.7°
Drops below altitude 10° 03:57:33 10° 106° (ESE) 1,407 6.8 -19.2°
Enters shadow 04:52:46 -72° 245° (WSW) 12,516 10.4 -10.3°
Maximum altitude 05:31:19 64° 154° (SSE) 431 3.3 -4.3°
